Location: Belvedere Heights
(33.9836°N, 117.3109°W)
Time: 07:08:23
(UTC+00:00)

POLYITAN 1 - Pass Details

Date: 31 May 2024
Orbit: 548 x 570 km, 98.1° (Epoch: 13 June)

Event Time Altitude Azimuth Distance (km) Brightness Sun altitude
Rises 11:00:50 0° 15° (NNE) 2,736 ? -17.5°
Reaches altitude 10° 11:03:00 10° 19° (NNE) 1,835 ? -17.1°
Maximum altitude 11:06:56 64° 101° (E) 610 ? -16.5°
Enters shadow 11:09:37 19° 180° (S) 1,328 ? -16.1°
